Погода в Татарке

Россия / Ставропольский край     44°57′34″N   41°57′28″E
темп.,
°C
ветер,
м/с
пор.,
м/с
влажн.,
%
обл.,
%
осадки,
мм/ч
давл.,
гПа
погр.,
м
26 октября, вт
вт2600:00+4ссв1184100 0.1 1032106
03:00+3всв1183100 0.1 1032114
06:00+2св228115 0.0 103376
09:00+3в22715 0.0 1033371
12:00+6в22597 0.0 1032965
15:00+7всв32554 0.0 1031974
18:00+4всв36670 0.0 1032147
21:00+2в47661 0.0 1032194
27 октября, ср
ср2700:00+1вюв48745 0.0 1031222
03:00+1вюв49775 0.0 1030224
06:000вюв411840 0.0 1029252
09:00+4вюв611701 0.0 1028368
12:00+8вюв79510 0.0 1026541
15:00+9вюв68450 0.0 1025644
18:00+5юв48620 0.0 1025188
21:00+3юв33700 0.0 102461
28 октября, чт
чт2800:00+3ююз22720 0.0 102414
03:00+3зюз33740 0.0 102432
06:00+2зюз33780 0.0 102533
09:00+6зюз3765100 0.0 1025285
12:00+10з685090 0.0 1024635
15:00+9зсз6850100 0.0 1024754
18:00+7з3662100 0.0 1025240
21:00+6зюз3566100 0.0 1025232
29 октября, пт
пт2900:00+5зюз3870100 0.0 1024241
03:00+5зюз41067100 0.0 1024316
06:00+4зюз41074100 0.0 1025271
09:00+6зюз51277100 0.0 1025433
12:00+8з61172100 0.1 1025693
15:00+9з5978100 0.1 1025636
18:00+7з358815 0.0 1027159
21:00+7ссз2493100 0.1 1029156
30 октября, сб
сб3000:00+6св358918 0.0 1030342
03:00+3всв34923 0.0 103298
06:00+2в36934 0.0 1033163
09:00+4в56765 0.0 1034380
12:00+7в67561 0.0 1033640
15:00+8в78520 0.0 1033798
18:00+5в611650 0.0 1034437
21:00+3в613720 0.0 1034409